Location: Newark
(46.7000°N, 66.1167°W)
Time: 14:06:44
(UTC+00:00)

N. Korean satellite - Visible Passes

Search period start: 18 March 2019 00:00
Search period end: 28 March 2019 00:00
Orbit: 455 x 511 km, 97.2° (Epoch: 18 March)

Date Brightness Start Highest point End Pass type
(mag) Time Alt. Az. Time Alt. Az. Time Alt. Az.
18 Mar 10.2 09:30:57 10° ENE 09:32:14 12° E 09:33:30 10° ESE visible
21 Mar 9.7 09:48:46 10° NE 09:51:23 19° E 09:54:00 10° SE visible
22 Mar 10.6 09:26:03 10° E 09:26:21 10° E 09:26:39 10° E visible
25 Mar 9.8 09:43:04 10° NE 09:45:28 17° E 09:47:53 10° SE visible
